• In Uzbekistan
  • List of Countries
  • For 7 days
  • Water Temperature
  • Satellite Maps
  • Weather Map
  • Weather Widgets
  • user-avatar
    Login

    Hourly Weather Lopon

    Today, 24 May, Thursday

    Time Temperature Precipitation Wind Pressure Humidity
    00:00 +15°C° 0.1 mm 2 mps 745 mmHg 92%
    01:00 +14°C° 0 mm 2 mps 745 mmHg 93%
    02:00 +14°C° 0.1 mm 2 mps 745 mmHg 93%
    03:00 +14°C° 0.1 mm 2 mps 745 mmHg 93%
    04:00 +13°C° 0.1 mm 2 mps 745 mmHg 94%
    05:00 +14°C° 0 mm 2 mps 746 mmHg 91%
    06:00 +16°C° 0 mm 2 mps 746 mmHg 88%
    07:00 +18°C° 0 mm 3 mps 746 mmHg 84%
    08:00 +19°C° 0 mm 3 mps 746 mmHg 80%
    09:00 +20°C° 0 mm 3 mps 746 mmHg 75%
    10:00 +21°C° 0 mm 4 mps 746 mmHg 70%
    11:00 +22°C° 0.1 mm 4 mps 746 mmHg 67%
    12:00 +22°C° 0.1 mm 4 mps 745 mmHg 63%
    13:00 +23°C° 0.1 mm 5 mps 745 mmHg 60%
    14:00 +23°C° 0.1 mm 4 mps 745 mmHg 60%
    15:00 +23°C° 0.1 mm 4 mps 745 mmHg 61%
    16:00 +23°C° 0.1 mm 4 mps 744 mmHg 61%
    17:00 +21°C° 0 mm 4 mps 744 mmHg 67%
    18:00 +20°C° 0 mm 3 mps 744 mmHg 73%
    19:00 +18°C° 0 mm 3 mps 744 mmHg 78%
    20:00 +17°C° 0 mm 2 mps 744 mmHg 82%
    21:00 +16°C° 0 mm 2 mps 744 mmHg 85%
    22:00 +15°C° 0 mm 2 mps 745 mmHg 88%
    23:00 +14°C° 0 mm 2 mps 744 mmHg 89%

    Tomorrow, 25 May, Friday

    Time Temperature Precipitation Wind Pressure Humidity
    00:00 +13°C° 0 mm 1 mps 744 mmHg 90%
    01:00 +13°C° 0 mm 1 mps 744 mmHg 92%
    02:00 +13°C° 0 mm 1 mps 744 mmHg 92%
    03:00 +12°C° 0 mm 1 mps 744 mmHg 93%
    04:00 +12°C° 0 mm 1 mps 744 mmHg 94%
    05:00 +14°C° 0 mm 1 mps 744 mmHg 89%
    06:00 +15°C° 0 mm 2 mps 744 mmHg 84%
    07:00 +17°C° 0 mm 2 mps 744 mmHg 79%
    08:00 +19°C° 0 mm 2 mps 744 mmHg 73%
    09:00 +20°C° 0 mm 3 mps 744 mmHg 67%
    10:00 +22°C° 0 mm 3 mps 744 mmHg 61%
    11:00 +22°C° 0 mm 3 mps 744 mmHg 59%
    12:00 +24°C° 0 mm 3 mps 744 mmHg 57%
    13:00 +25°C° 0 mm 3 mps 744 mmHg 55%
    14:00 +24°C° 0.1 mm 3 mps 744 mmHg 58%
    15:00 +24°C° 0.1 mm 3 mps 744 mmHg 61%
    16:00 +24°C° 0.1 mm 3 mps 744 mmHg 64%
    17:00 +21°C° 0.1 mm 2 mps 744 mmHg 71%
    18:00 +20°C° 0.1 mm 2 mps 744 mmHg 77%
    19:00 +19°C° 0.1 mm 2 mps 744 mmHg 84%
    20:00 +19°C° 0 mm 1 mps 744 mmHg 87%
    21:00 +18°C° 0 mm 1 mps 744 mmHg 89%
    22:00 +16°C° 0 mm 1 mps 745 mmHg 92%
    23:00 +15°C° 0 mm 1 mps 745 mmHg 93%

    Day after tomorrow, 26 May, Saturday

    Time Temperature Precipitation Wind Pressure Humidity
    00:00 +15°C° 0 mm 1 mps 745 mmHg 93%
    01:00 +15°C° 0 mm 1 mps 745 mmHg 94%
    02:00 +15°C° 0 mm 1 mps 745 mmHg 94%
    03:00 +15°C° 0 mm 1 mps 745 mmHg 94%
    04:00 +15°C° 0 mm 1 mps 745 mmHg 95%
    05:00 +16°C° 0 mm 1 mps 745 mmHg 92%
    06:00 +18°C° 0 mm 1 mps 746 mmHg 89%
    07:00 +19°C° 0 mm 1 mps 746 mmHg 87%
    08:00 +21°C° 0.1 mm 1 mps 746 mmHg 82%
    09:00 +22°C° 0.1 mm 1 mps 746 mmHg 78%
    10:00 +23°C° 0.1 mm 1 mps 746 mmHg 73%
    11:00 +24°C° 0.2 mm 2 mps 746 mmHg 70%
    12:00 +25°C° 0.2 mm 2 mps 745 mmHg 66%
    13:00 +26°C° 0.2 mm 3 mps 745 mmHg 63%
    14:00 +26°C° 0.2 mm 3 mps 745 mmHg 65%
    15:00 +26°C° 0.2 mm 3 mps 745 mmHg 67%
    16:00 +25°C° 0.2 mm 3 mps 745 mmHg 69%
    17:00 +24°C° 0.3 mm 3 mps 745 mmHg 75%
    18:00 +22°C° 0.3 mm 3 mps 745 mmHg 81%
    19:00 +20°C° 0.3 mm 2 mps 745 mmHg 87%
    20:00 +20°C° 0 mm 2 mps 745 mmHg 88%
    21:00 +19°C° 0 mm 2 mps 745 mmHg 90%
    22:00 +18°C° 0 mm 2 mps 745 mmHg 92%
    23:00 +17°C° 0 mm 2 mps 745 mmHg 92%

    27 May, Sunday

    Time Temperature Precipitation Wind Pressure Humidity
    00:00 +18°C° 0 mm 1 mps 745 mmHg 93%
    01:00 +16°C° 0 mm 1 mps 745 mmHg 93%
    02:00 +16°C° 0 mm 1 mps 744 mmHg 93%
    03:00 +15°C° 0 mm 1 mps 744 mmHg 94%
    04:00 +15°C° 0 mm 1 mps 744 mmHg 94%
    05:00 +16°C° 0 mm 1 mps 745 mmHg 91%
    06:00 +19°C° 0 mm 1 mps 745 mmHg 88%
    07:00 +20°C° 0 mm 1 mps 745 mmHg 84%
    08:00 +22°C° 0.2 mm 1 mps 745 mmHg 80%
    09:00 +23°C° 0.2 mm 2 mps 745 mmHg 77%
    10:00 +24°C° 0.2 mm 2 mps 745 mmHg 73%
    11:00 +25°C° 0.3 mm 2 mps 745 mmHg 71%
    12:00 +26°C° 0.3 mm 2 mps 745 mmHg 68%
    13:00 +26°C° 0.3 mm 2 mps 745 mmHg 66%
    14:00 +26°C° 0.8 mm 2 mps 745 mmHg 68%
    15:00 +26°C° 0.8 mm 3 mps 745 mmHg 70%
    16:00 +26°C° 0.8 mm 3 mps 744 mmHg 72%
    17:00 +24°C° 0.3 mm 3 mps 745 mmHg 78%
    18:00 +23°C° 0.3 mm 2 mps 745 mmHg 83%
    19:00 +21°C° 0.3 mm 2 mps 745 mmHg 88%
    20:00 +20°C° 0 mm 2 mps 745 mmHg 90%
    21:00 +19°C° 0 mm 2 mps 745 mmHg 93%
    22:00 +18°C° 0 mm 2 mps 745 mmHg 95%
    23:00 +17°C° 0 mm 2 mps 745 mmHg 95%

    28 May, Monday

    Time Temperature Precipitation Wind Pressure Humidity
    00:00 +17°C° 0 mm 2 mps 746 mmHg 96%
    01:00 +16°C° 0 mm 2 mps 746 mmHg 97%
    02:00 +16°C° 0 mm 2 mps 746 mmHg 97%
    03:00 +16°C° 0 mm 2 mps 746 mmHg 97%
    04:00 +15°C° 0 mm 2 mps 746 mmHg 97%
    05:00 +17°C° 0 mm 2 mps 746 mmHg 94%
    06:00 +18°C° 0 mm 3 mps 746 mmHg 90%
    07:00 +19°C° 0 mm 3 mps 746 mmHg 87%
    08:00 +21°C° 0 mm 4 mps 747 mmHg 80%
    09:00 +23°C° 0 mm 4 mps 747 mmHg 73%
    10:00 +25°C° 0 mm 4 mps 747 mmHg 66%
    11:00 +26°C° 0.2 mm 5 mps 747 mmHg 66%
    12:00 +26°C° 0.2 mm 5 mps 747 mmHg 65%
    13:00 +26°C° 0.2 mm 5 mps 747 mmHg 65%
    14:00 +26°C° 0.3 mm 5 mps 746 mmHg 66%
    15:00 +26°C° 0.3 mm 5 mps 746 mmHg 66%
    16:00 +26°C° 0.3 mm 5 mps 746 mmHg 67%
    17:00 +25°C° 0 mm 5 mps 746 mmHg 71%
    18:00 +22°C° 0 mm 5 mps 746 mmHg 76%
    19:00 +21°C° 0 mm 4 mps 746 mmHg 81%
    20:00 +20°C° 0 mm 4 mps 746 mmHg 83%
    21:00 +19°C° 0 mm 4 mps 747 mmHg 85%
    22:00 +18°C° 0 mm 4 mps 747 mmHg 88%
    23:00 +17°C° 0 mm 3 mps 747 mmHg 89%

    29 May, Tuesday

    Time Temperature Precipitation Wind Pressure Humidity
    00:00 +16°C° 0 mm 3 mps 747 mmHg 90%
    01:00 +16°C° 0 mm 3 mps 747 mmHg 91%
    02:00 +14°C° 0 mm 3 mps 747 mmHg 92%
    03:00 +14°C° 0 mm 3 mps 747 mmHg 92%
    04:00 +14°C° 0 mm 3 mps 747 mmHg 93%
    05:00 +16°C° 0 mm 3 mps 747 mmHg 88%
    06:00 +18°C° 0 mm 3 mps 747 mmHg 83%
    07:00 +20°C° 0 mm 4 mps 747 mmHg 78%
    08:00 +22°C° 0 mm 4 mps 747 mmHg 73%
    09:00 +23°C° 0 mm 4 mps 747 mmHg 67%
    10:00 +26°C° 0 mm 5 mps 747 mmHg 61%
    11:00 +27°C° 0 mm 5 mps 747 mmHg 59%
    12:00 +27°C° 0 mm 5 mps 747 mmHg 57%
    13:00 +28°C° 0 mm 5 mps 746 mmHg 55%
    14:00 +28°C° 0 mm 5 mps 746 mmHg 56%
    15:00 +27°C° 0 mm 5 mps 746 mmHg 58%
    16:00 +27°C° 0 mm 5 mps 746 mmHg 60%
    17:00 +25°C° 0 mm 5 mps 746 mmHg 65%
    18:00 +23°C° 0 mm 5 mps 746 mmHg 71%
    19:00 +21°C° 0 mm 4 mps 745 mmHg 77%
    20:00 +20°C° 0 mm 4 mps 745 mmHg 80%
    21:00 +19°C° 0 mm 3 mps 745 mmHg 84%
    22:00 +18°C° 0 mm 3 mps 745 mmHg 87%
    23:00 +17°C° 0 mm 2 mps 745 mmHg 89%
    Show more